Location: Buisson
(44.2787°N, 4.9969°E)
Time: 02:18:53
(UTC+00:00)

OE (NEXTSAT) - Pass Details

Date: 18 April 2021
Orbit: 425 x 433 km, 46.0° (Epoch: 08 May)

Event Time Altitude Azimuth Distance (km) Brightness Sun altitude
Exits shadow 04:07:21 11° 258° (WSW) 1,484 6.4 -8.2°
Maximum altitude 04:10:42 83° 345° (NNW) 438 4.3 -7.7°
Drops below altitude 10° 04:14:09 10° 75° (ENE) 1,527 8.8 -7.1°
Sets 04:16:16 0° 76° (ENE) 2,393 10.4 -6.7°
